Weather History for KLAR - July, 2014

Change the Weather History Date:

Thursday, July 24, 2014

  Actual Average Record
Temperature  
Mean Temperature 73 °F 65 °F  
Max Temperature 85 °F 81 °F 92 °F (1959)
Min Temperature 60 °F 49 °F 41 °F (1962)
Degree Days  
Heating Degree Days 0 2  
Month to date heating degree days 35 58  
Since 1 June heating degree days 277 299  
Since 1 July heating degree days 35 58  
Cooling Degree Days 8 2  
Month to date cooling degree days 52 30  
Year to date cooling degree days 55 37  
Since 1 June cooling degree days 55 37  
Growing Degree Days 23 (Base 50)    
Moisture  
Dew Point 44 °F    
Average Humidity 43    
Maximum Humidity 60    
Minimum Humidity 25    
Precipitation  
Precipitation 0.00 in 0.05 in 2.40 in (1977)
Month to date precipitation 1.96 1.08  
Year to date precipitation 7.80 6.57  
Sea Level Pressure  
Sea Level Pressure 29.88 in    
Wind  
Wind Speed 15 mph (SW)    
Max Wind Speed 32 mph    
Max Gust Speed 45 mph    
Visibility 10 miles    
Events      
T = Trace of Precipitation, MM = Missing Value Source: NWS Daily Summary

Daily Weather History Graph

Daily Weather History Graph

Search for Another Location

Airport or City:

Trip Planner

Search our weather history database for the weather conditions in past years. The results will help you decide how hot, cold, wet, or windy it might be!

Date:

Astronomy

Jul. 24, 2014 Rise Set
Actual Time 5:50 AM MDT 8:27 PM MDT
Civil Twilight 5:18 AM MDT 8:59 PM MDT
Nautical Twilight 4:38 AM MDT 9:39 PM MDT
Astronomical Twilight 3:53 AM MDT 10:23 PM MDT
Moon 4:00 AM MDT (7/24) 6:44 PM MDT (7/24)
Length of Visible Light 15h 40m
Length of Day
14h 37m
Waning Crescent, 4% of the Moon is Illuminated
Jul 24
Waning Crescent
Jul 26
New
Aug 3
First Quarter
Aug 10
Full
Aug 17
Last Quarter

Hourly Weather History & Observations

Time (MDT) Temp. Dew Point Humidity Pressure Visibility Wind Dir Wind Speed Gust Speed Precip Events Conditions
12:08 AM 70.0 °F 42.1 °F 36% 30.33 in 10.0 mi SW 18.4 mph - N/A   Clear
12:53 AM 64.9 °F 44.1 °F 47% 29.91 in 10.0 mi South 4.6 mph - N/A   Clear
1:53 AM 64.9 °F 43.0 °F 45% 29.90 in 10.0 mi Variable 4.6 mph - N/A   Clear
2:53 AM 69.1 °F 41.0 °F 36% 29.89 in 10.0 mi SSW 15.0 mph 23.0 mph N/A   Clear
3:53 AM 75.9 °F 37.0 °F 24% 29.86 in 10.0 mi West 17.3 mph 27.6 mph N/A   Partly Cloudy
4:53 AM 66.0 °F 41.0 °F 40% 29.92 in 10.0 mi WSW 10.4 mph - N/A   Clear
5:53 AM 62.1 °F 42.1 °F 48% 29.92 in 10.0 mi SW 10.4 mph - N/A   Clear
6:53 AM 64.9 °F 43.0 °F 45% 29.91 in 10.0 mi South 8.1 mph - N/A   Clear
7:53 AM 72.0 °F 43.0 °F 35% 29.89 in 10.0 mi SW 13.8 mph - N/A   Clear
8:53 AM 77.0 °F 43.0 °F 30% 29.89 in 10.0 mi WSW 20.7 mph 29.9 mph N/A   Clear
9:53 AM 79.0 °F 43.0 °F 28% 29.88 in 10.0 mi WSW 24.2 mph 32.2 mph N/A   Clear
10:53 AM 81.0 °F 44.1 °F 27% 29.89 in 10.0 mi WSW 24.2 mph 34.5 mph N/A   Clear
11:53 AM 84.0 °F 44.1 °F 25% 29.86 in 10.0 mi WSW 25.3 mph 32.2 mph N/A   Clear
12:53 PM 82.9 °F 45.0 °F 26% 29.86 in 10.0 mi West 21.9 mph 26.5 mph N/A   Clear
1:53 PM 78.1 °F 43.0 °F 29% 29.88 in 10.0 mi WSW 19.6 mph 28.8 mph N/A   Clear
2:53 PM 75.0 °F 44.1 °F 33% 29.88 in 10.0 mi North - - N/A   Partly Cloudy
3:53 PM 75.9 °F 45.0 °F 33% 29.84 in 10.0 mi WSW 15.0 mph 21.9 mph N/A   Clear
4:53 PM 80.1 °F 48.0 °F 32% 29.81 in 10.0 mi SW 15.0 mph - N/A   Partly Cloudy
5:53 PM 81.0 °F 46.0 °F 29% 29.79 in 10.0 mi WSW 20.7 mph 25.3 mph N/A   Partly Cloudy
6:53 PM 77.0 °F 48.0 °F 36% 29.80 in 10.0 mi SW 13.8 mph - N/A   Clear
7:53 PM 75.9 °F 48.9 °F 38% 29.78 in 10.0 mi SW 13.8 mph - N/A   Clear
8:53 PM 72.0 °F 46.9 °F 41% 29.78 in 10.0 mi SW 15.0 mph - N/A   Clear
9:53 PM 64.9 °F 48.0 °F 54% 29.83 in 10.0 mi WSW 6.9 mph - N/A   Clear
10:53 PM 62.1 °F 48.0 °F 60% 29.83 in 10.0 mi South 4.6 mph - N/A   Clear
11:53 PM 64.0 °F 48.0 °F 56% 29.83 in 10.0 mi WSW 9.2 mph - N/A   Partly Cloudy